Overview Statistics Trail Chart Weather Telemetry Raw packets
 

This is the latest recevied weather packets stored in our database for station/object F5ZQC-13. If no packets are shown the sender has not sent any weather packets the latest 10 day(s).

<< 136 137 138 139 140 141 142 >>
Time Temp. Humidity Pressure Rain* Wind** Luminosity Snow
1787782974 24.44° C 32% 1007.8 hPa 0 mm - - -
1787782730 24.44° C 31% 1007.7 hPa 0 mm - - -
1787782483 24.44° C 32% 1007.7 hPa 0 mm - - -
1787782363 24.44° C 32% 1007.6 hPa 0 mm - - -
1787782116 24.44° C 32% 1007.6 hPa 0 mm - - -
1787781996 24.44° C 32% 1007.7 hPa 0 mm - - -
1787781872 24.44° C 32% 1007.7 hPa 0 mm - - -
1787781507 24.44° C 32% 1007.6 hPa 0 mm - - -
1787780896 24.44° C 29% 1007.8 hPa 0 mm - - -
1787780651 24.44° C 30% 1007.7 hPa 0 mm - - -
1787780407 24.44° C 30% 1007.7 hPa 0 mm - - -
1787780163 24.44° C 30% 1007.8 hPa 0 mm - - -
1787778450 25° C 36% 1007.9 hPa 0 mm - - -
1787778328 25° C 36% 1008 hPa 0 mm - - -
1787777963 25° C 38% 1007.8 hPa 0 mm - - -
1787777228 25.56° C 38% 1008 hPa 0 mm - - -
1787777105 25.56° C 38% 1008 hPa 0 mm - - -
1787776983 25.56° C 36% 1007.9 hPa 0 mm - - -
1787776738 25.56° C 36% 1007.9 hPa 0 mm - - -
1787776616 25.56° C 36% 1007.8 hPa 0 mm - - -
1787776371 25.56° C 38% 1007.8 hPa 0 mm - - -
1787776127 25.56° C 38% 1007.6 hPa 0 mm - - -
1787775760 25.56° C 36% 1007.7 hPa 0 mm - - -
1787775516 26.11° C 36% 1007.7 hPa 0 mm - - -
1787775271 26.11° C 34% 1007.7 hPa 0 mm - - -

* Rain since midnight (hover to see other rain measurements)
** Current wind speed in m/s (hover to see current wind gust speed)